Weather in Kargali

Russia / Republic of Tatarstan     55°12′50″N   50°53′56″E
temp.,
°C
wind,
m/s
gust,
m/s
humid.,
%
clouds,
%
prec.,
mm/h
press.,
hPa
HPBL,
m
6 may, thu
thu600:00+5wsw512805 0.0 1012385
03:00+5wsw4978100 0.0 1013297
06:00+7wsw477699 0.0 1014286
09:00+8wsw3679100 0.1 1016390
12:00+14w586578 0.1 10161223
15:00+16w575878 0.1 10161446
18:00+14sw356868 0.1 1016165
21:00+11ssw487863 0.1 1017127
7 may, fri
fri700:00+10s398196 0.0 1017152
03:00+9s498162 0.0 1018151
06:00+11s51272100 0.0 1018338
09:00+15ssw71156100 0.0 1018678
12:00+18ssw7945100 0.0 10172438
15:00+18ssw6943100 0.0 10162202
18:00+16ssw3560100 0.0 1016118
21:00+13s3765100 0.0 1017131
8 may, sat
sat800:00+11wsw3471100 0.0 101778
03:00+10n1178100 0.0 101810
06:00+11sse1174100 0.0 101852
09:00+14se3463100 0.0 1018279
12:00+18s4548100 0.0 10171296
15:00+19ssw454588 0.0 10162095
18:00+17s35605 0.0 1016114
21:00+14sse36687 0.1 1016105
9 may, sun
sun900:00+11sse497384 0.0 1016164
03:00+11sse41176100 0.0 1015181
06:00+13sse61371100 0.0 1015365
09:00+17s71154100 0.0 1015664
12:00+20s794499 0.0 10151313
15:00+21s684272 0.0 10141499
18:00+19sse51056100 0.0 1015306
21:00+16sse3106299 0.0 1015246
10 may, mon
mon1000:00+13nne3592100 0.3 1017175
03:00+12nnw3596100 1.3 1020192
06:00+13n3488100 0.6 1021276
09:00+14ne5681100 0.8 1023521
12:00+17nne4471100 0.0 1024906
15:00+16nne5669100 0.0 1025695
18:00+15ne587176 0.0 1026531
21:00+12nne497811 0.0 1027259